N624JX KSJC-KIAD

Flight info

Callsign N624JX
Flight time 4h 3m
Altitude 41000
Route SPTNS1 TECKY NTELL KATTS Q136 COUGH/N0522F450 Q136 SYTHH WELKY MERKY PKACZ MGW GIBBZ5
Aircraft C750/M-SBDE3FGHRWXY/S

Departure

Time 2026-05-07 23:31
Airport Norman Y. Mineta San Jose International Airport (KSJC)

Arrival

Time 2026-05-08 03:34
Airport Washington Dulles International Airport (KIAD)
Time Latitude Longitude Altitude Speed Heading
2026-05-07 23:15 37.35781 -121.92981 58 ft 0 kts 229°
2026-05-07 23:25 37.35769 -121.92991 57 ft 4 kts 196°
2026-05-07 23:25 37.35742 -121.92968 57 ft 5 kts 138°
2026-05-07 23:26 37.35744 -121.92935 56 ft 6 kts 51°
2026-05-07 23:26 37.35769 -121.92892 55 ft 6 kts 52°
2026-05-07 23:26 37.35754 -121.92844 56 ft 10 kts 139°
2026-05-07 23:26 37.35694 -121.92779 57 ft 11 kts 139°
2026-05-07 23:27 37.35631 -121.92652 57 ft 9 kts 50°
2026-05-07 23:27 37.35676 -121.92588 57 ft 9 kts 48°
2026-05-07 23:27 37.35671 -121.92517 55 ft 11 kts 137°
2026-05-07 23:28 37.35609 -121.92448 56 ft 13 kts 139°
2026-05-07 23:28 37.35539 -121.92371 55 ft 13 kts 139°
2026-05-07 23:28 37.35470 -121.92296 54 ft 15 kts 139°
2026-05-07 23:28 37.35394 -121.92213 57 ft 14 kts 139°
2026-05-07 23:29 37.35326 -121.92139 58 ft 12 kts 139°
2026-05-07 23:29 37.35265 -121.92072 57 ft 11 kts 139°
2026-05-07 23:29 37.35217 -121.92006 58 ft 10 kts 107°
2026-05-07 23:29 37.35240 -121.91941 56 ft 7 kts 47°
2026-05-07 23:30 37.35277 -121.91919 59 ft 5 kts
2026-05-07 23:30 37.35306 -121.91933 55 ft 3 kts 322°
2026-05-07 23:30 37.35394 -121.92029 55 ft 53 kts 319°
2026-05-07 23:30 37.35926 -121.92614 60 ft 138 kts 319°
2026-05-07 23:31 37.36702 -121.93468 449 ft 152 kts 319°
2026-05-07 23:31 37.37505 -121.94370 1131 ft 157 kts 318°
2026-05-07 23:31 37.38322 -121.95263 1917 ft 155 kts 317°
2026-05-07 23:31 37.39158 -121.96165 2588 ft 159 kts 316°
2026-05-07 23:32 37.40024 -121.97086 3177 ft 167 kts 321°
2026-05-07 23:32 37.41147 -121.97630 3700 ft 183 kts 351°
2026-05-07 23:32 37.42463 -121.97390 4208 ft 203 kts 22°
2026-05-07 23:32 37.43578 -121.96203 4738 ft 222 kts 56°
2026-05-07 23:33 37.43983 -121.94292 5243 ft 237 kts 94°
2026-05-07 23:33 37.43360 -121.92357 5776 ft 247 kts 129°
2026-05-07 23:33 37.42593 -121.91284 6189 ft 252 kts 136°
2026-05-07 23:33 37.40881 -121.89169 6956 ft 270 kts 138°
2026-05-07 23:34 37.39523 -121.87438 7509 ft 286 kts 136°
2026-05-07 23:34 37.38591 -121.86214 8081 ft 288 kts 136°
2026-05-07 23:34 37.37199 -121.84396 9024 ft 289 kts 136°
2026-05-07 23:34 37.35781 -121.82573 9853 ft 294 kts 137°
2026-05-07 23:35 37.34340 -121.80722 10594 ft 297 kts 136°
2026-05-07 23:35 37.32886 -121.78852 11263 ft 303 kts 136°
2026-05-07 23:35 37.31274 -121.77057 11679 ft 316 kts 140°
2026-05-07 23:35 37.29617 -121.75150 12124 ft 330 kts 138°
2026-05-07 23:36 37.27909 -121.73153 12584 ft 341 kts 139°
2026-05-07 23:36 37.26118 -121.71127 13045 ft 352 kts 140°
2026-05-07 23:36 37.24267 -121.69056 13514 ft 361 kts 139°
2026-05-07 23:36 37.22379 -121.66916 13990 ft 369 kts 138°
2026-05-07 23:37 37.20459 -121.64728 14422 ft 376 kts 138°
2026-05-07 23:37 37.18503 -121.62516 14951 ft 379 kts 138°
2026-05-07 23:37 37.16531 -121.60292 15485 ft 383 kts 138°
2026-05-07 23:37 37.14539 -121.58044 16040 ft 386 kts 138°
2026-05-07 23:38 37.12538 -121.55782 16599 ft 389 kts 138°
2026-05-07 23:38 37.10520 -121.53506 17205 ft 392 kts 138°
2026-05-07 23:38 37.08488 -121.51193 17706 ft 397 kts 136°
2026-05-07 23:38 37.06850 -121.48408 18166 ft 401 kts 115°
2026-05-07 23:39 37.06053 -121.45085 18753 ft 400 kts 98°
2026-05-07 23:39 37.05698 -121.41629 19326 ft 402 kts 96°
2026-05-07 23:39 37.05401 -121.38139 19875 ft 405 kts 95°
2026-05-07 23:39 37.05073 -121.34625 20422 ft 409 kts 96°
2026-05-07 23:40 37.04708 -121.31087 20991 ft 412 kts 97°
2026-05-07 23:40 37.04349 -121.27515 21544 ft 415 kts 96°
2026-05-07 23:40 37.04008 -121.23915 22116 ft 419 kts 96°
2026-05-07 23:40 37.03656 -121.20277 22664 ft 422 kts 97°
2026-05-07 23:41 37.03290 -121.16616 23217 ft 425 kts 97°
2026-05-07 23:41 37.02922 -121.12930 23744 ft 429 kts 97°
2026-05-07 23:41 37.02560 -121.09263 24196 ft 432 kts 97°
2026-05-07 23:41 37.02189 -121.05521 24655 ft 435 kts 97°
2026-05-07 23:42 37.01813 -121.01759 25126 ft 437 kts 97°
2026-05-07 23:42 37.01432 -120.97976 25591 ft 440 kts 97°
2026-05-07 23:42 37.01049 -120.94161 26038 ft 443 kts 97°
2026-05-07 23:42 37.00663 -120.90331 26497 ft 445 kts 97°
2026-05-07 23:43 37.00272 -120.86474 26946 ft 448 kts 97°
2026-05-07 23:43 36.99878 -120.82591 27382 ft 451 kts 97°
2026-05-07 23:43 36.99481 -120.78685 27833 ft 454 kts 97°
2026-05-07 23:43 36.99079 -120.74753 28273 ft 457 kts 97°
2026-05-07 23:44 36.98673 -120.70797 28703 ft 460 kts 97°
2026-05-07 23:44 36.98262 -120.66811 29140 ft 463 kts 97°
2026-05-07 23:44 36.97849 -120.62806 29556 ft 466 kts 97°
2026-05-07 23:44 36.97430 -120.58768 29956 ft 470 kts 96°
2026-05-07 23:45 36.97008 -120.54710 30338 ft 472 kts 97°
2026-05-07 23:45 36.96583 -120.50626 30699 ft 474 kts 97°
2026-05-07 23:45 36.96154 -120.46531 31069 ft 476 kts 97°
2026-05-07 23:45 36.95724 -120.42444 31681 ft 472 kts 97°
2026-05-07 23:46 36.95297 -120.38385 32221 ft 470 kts 97°
2026-05-07 23:46 36.94869 -120.34336 32708 ft 470 kts 97°
2026-05-07 23:46 36.94439 -120.30291 33238 ft 468 kts 97°
2026-05-07 23:46 36.94011 -120.26267 33788 ft 467 kts 97°
2026-05-07 23:47 36.93583 -120.22252 34287 ft 465 kts 97°
2026-05-07 23:47 36.93154 -120.18247 34709 ft 465 kts 97°
2026-05-07 23:47 36.92722 -120.14235 35125 ft 465 kts 97°
2026-05-07 23:47 36.92290 -120.10230 35547 ft 465 kts 97°
2026-05-07 23:48 36.91856 -120.06217 35936 ft 466 kts 97°
2026-05-07 23:48 36.91421 -120.02207 36420 ft 465 kts 97°
2026-05-07 23:48 36.90986 -119.98211 36877 ft 464 kts 97°
2026-05-07 23:48 36.90587 -119.94206 37250 ft 466 kts 94°
2026-05-07 23:49 36.90611 -119.90166 37662 ft 464 kts 84°
2026-05-07 23:49 36.91170 -119.86212 38141 ft 462 kts 74°
2026-05-07 23:49 36.92241 -119.82432 38555 ft 461 kts 64°
2026-05-07 23:49 36.93756 -119.78914 38946 ft 459 kts 58°
2026-05-07 23:50 36.95477 -119.75556 39312 ft 459 kts 56°
2026-05-07 23:50 36.97204 -119.72198 39620 ft 459 kts 58°
2026-05-07 23:50 36.98729 -119.68681 39941 ft 461 kts 63°
2026-05-07 23:50 37.00101 -119.65063 40305 ft 460 kts 64°
2026-05-07 23:51 37.01537 -119.61487 40655 ft 460 kts 60°
2026-05-07 23:51 37.03095 -119.57993 41002 ft 460 kts 59°
2026-05-07 23:51 37.06145 -119.50811 41040 ft 475 kts 62°
2026-05-07 23:52 37.09250 -119.43358 41070 ft 490 kts 60°
2026-05-07 23:52 37.12491 -119.35703 41075 ft 504 kts 61°
2026-05-07 23:53 37.15774 -119.27804 41081 ft 517 kts 61°
2026-05-07 23:53 37.19139 -119.19788 41101 ft 521 kts 61°
2026-05-07 23:54 37.22486 -119.11721 41121 ft 521 kts 61°
2026-05-07 23:54 37.25847 -119.03655 41118 ft 522 kts 61°
2026-05-07 23:55 37.29192 -118.95566 41137 ft 522 kts 61°
2026-05-07 23:55 37.32542 -118.87474 41133 ft 522 kts 60°
2026-05-07 23:56 37.35879 -118.79377 41155 ft 522 kts 60°
2026-05-07 23:56 37.39213 -118.71272 41141 ft 522 kts 61°
2026-05-07 23:57 37.42540 -118.63162 41031 ft 520 kts 61°
2026-05-07 23:57 37.45844 -118.55087 41031 ft 519 kts 61°
2026-05-07 23:58 37.49146 -118.46999 41026 ft 520 kts 61°
2026-05-07 23:58 37.52443 -118.38901 41019 ft 520 kts 61°
2026-05-07 23:59 37.55731 -118.30802 41001 ft 517 kts 61°
2026-05-07 23:59 37.59010 -118.22708 40978 ft 518 kts 61°
2026-05-08 00:00 37.62284 -118.14604 40954 ft 519 kts 61°
2026-05-08 00:00 37.65553 -118.06491 40934 ft 518 kts 61°
2026-05-08 00:01 37.68809 -117.98390 40929 ft 517 kts 61°
2026-05-08 00:01 37.72038 -117.90338 40930 ft 517 kts 61°
2026-05-08 00:02 37.75282 -117.82223 40921 ft 517 kts 61°
2026-05-08 00:02 37.78519 -117.74106 40919 ft 517 kts 62°
2026-05-08 00:03 37.81753 -117.65976 40921 ft 517 kts 62°
2026-05-08 00:03 37.84982 -117.57839 40927 ft 518 kts 62°
2026-05-08 00:04 37.88204 -117.49696 40932 ft 517 kts 62°
2026-05-08 00:04 37.91418 -117.41550 40938 ft 516 kts 62°
2026-05-08 00:05 37.94626 -117.33403 40953 ft 517 kts 62°
2026-05-08 00:05 37.97830 -117.25243 40952 ft 517 kts 62°
2026-05-08 00:06 38.01026 -117.17081 41128 ft 517 kts 62°
2026-05-08 00:06 38.04210 -117.08927 41112 ft 516 kts 62°
2026-05-08 00:07 38.07390 -117.00764 41112 ft 516 kts 62°
2026-05-08 00:07 38.10563 -116.92596 41088 ft 516 kts 62°
2026-05-08 00:08 38.13730 -116.84421 41050 ft 515 kts 62°
2026-05-08 00:08 38.16891 -116.76245 41020 ft 516 kts 62°
2026-05-08 00:09 38.20048 -116.68050 40980 ft 516 kts 62°
2026-05-08 00:09 38.23201 -116.59848 40967 ft 516 kts 62°
2026-05-08 00:10 38.26344 -116.51648 40967 ft 515 kts 62°
2026-05-08 00:10 38.29478 -116.43453 40956 ft 515 kts 62°
2026-05-08 00:11 38.32597 -116.35241 40939 ft 516 kts 63°
2026-05-08 00:11 38.34721 -116.26487 40929 ft 520 kts 75°
2026-05-08 00:12 38.36308 -116.17503 40931 ft 519 kts 73°
2026-05-08 00:12 38.38098 -116.08580 40922 ft 519 kts 74°
2026-05-08 00:13 38.39730 -115.99614 40915 ft 519 kts 74°
2026-05-08 00:13 38.41447 -115.90730 40916 ft 520 kts 74°
2026-05-08 00:14 38.43106 -115.81745 40914 ft 520 kts 74°
2026-05-08 00:14 38.44796 -115.72772 40917 ft 520 kts 74°
2026-05-08 00:15 38.46459 -115.63786 40926 ft 520 kts 74°
2026-05-08 00:15 38.48127 -115.54789 40918 ft 521 kts 74°
2026-05-08 00:16 38.49784 -115.45785 40922 ft 521 kts 74°
2026-05-08 00:16 38.51436 -115.36778 40928 ft 521 kts 74°
2026-05-08 00:17 38.53079 -115.27771 40928 ft 521 kts 74°
2026-05-08 00:17 38.54715 -115.18761 40935 ft 521 kts 74°
2026-05-08 00:18 38.56072 -115.11261 40936 ft 521 kts 74°
2026-05-08 00:18 38.57696 -115.02237 40936 ft 521 kts 74°
2026-05-08 00:19 38.59315 -114.93202 40934 ft 522 kts 74°
2026-05-08 00:19 38.60927 -114.84163 40926 ft 521 kts 75°
2026-05-08 00:20 38.62528 -114.75140 40930 ft 520 kts 75°
2026-05-08 00:20 38.64123 -114.66117 40928 ft 520 kts 75°
2026-05-08 00:21 38.65710 -114.57083 40936 ft 521 kts 75°
2026-05-08 00:21 38.67292 -114.48045 40937 ft 520 kts 75°
2026-05-08 00:22 38.68866 -114.39003 40935 ft 520 kts 75°
2026-05-08 00:22 38.70435 -114.29945 40942 ft 521 kts 75°
2026-05-08 00:23 38.71997 -114.20883 40938 ft 521 kts 75°
2026-05-08 00:23 38.73552 -114.11822 40930 ft 521 kts 75°
2026-05-08 00:24 38.75101 -114.02746 40936 ft 523 kts 75°
2026-05-08 00:24 38.76645 -113.93655 40926 ft 522 kts 75°
2026-05-08 00:25 38.78183 -113.84557 40921 ft 523 kts 75°
2026-05-08 00:25 38.79714 -113.75450 40919 ft 523 kts 75°
2026-05-08 00:26 38.81238 -113.66332 40918 ft 523 kts 75°
2026-05-08 00:26 38.82756 -113.57213 40917 ft 523 kts 75°
2026-05-08 00:27 38.84266 -113.48088 40908 ft 523 kts 75°
2026-05-08 00:27 38.85772 -113.38952 40906 ft 524 kts 75°
2026-05-08 00:28 38.87269 -113.29811 40908 ft 523 kts 75°
2026-05-08 00:28 38.88760 -113.20667 40905 ft 524 kts 75°
2026-05-08 00:29 38.90243 -113.11517 40906 ft 524 kts 75°
2026-05-08 00:29 38.91725 -113.02336 40909 ft 525 kts 75°
2026-05-08 00:30 38.93199 -112.93147 40906 ft 525 kts 75°
2026-05-08 00:30 38.94667 -112.83948 40914 ft 525 kts 75°
2026-05-08 00:31 38.96128 -112.74745 40914 ft 527 kts 75°
2026-05-08 00:31 38.97574 -112.65586 40919 ft 527 kts 75°
2026-05-08 00:32 38.99025 -112.56353 40935 ft 527 kts 75°
2026-05-08 00:32 39.00467 -112.47119 41051 ft 527 kts 75°
2026-05-08 00:33 39.01903 -112.37876 41056 ft 527 kts 75°
2026-05-08 00:33 39.03330 -112.28629 41049 ft 527 kts 75°
2026-05-08 00:34 39.04753 -112.19369 41045 ft 528 kts 75°
2026-05-08 00:34 39.06166 -112.10108 41020 ft 526 kts 75°
2026-05-08 00:35 39.07572 -112.00858 41014 ft 529 kts 75°
2026-05-08 00:35 39.08974 -111.91569 41012 ft 528 kts 75°
2026-05-08 00:36 39.10368 -111.82284 41015 ft 528 kts 75°
2026-05-08 00:36 39.11759 -111.72972 41023 ft 531 kts 75°
2026-05-08 00:37 39.13144 -111.63637 41018 ft 530 kts 75°
2026-05-08 00:38 39.15210 -111.49621 41038 ft 532 kts 75°
2026-05-08 00:38 39.16576 -111.40274 41039 ft 530 kts 75°
2026-05-08 00:39 39.17939 -111.30919 41037 ft 531 kts 75°
2026-05-08 00:39 39.19288 -111.21572 41028 ft 531 kts 75°
2026-05-08 00:40 39.20637 -111.12202 41024 ft 534 kts 75°
2026-05-08 00:40 39.21983 -111.02765 41013 ft 535 kts 75°
2026-05-08 00:41 39.23326 -110.93317 40990 ft 535 kts 75°
2026-05-08 00:41 39.24660 -110.83869 40979 ft 536 kts 75°
2026-05-08 00:42 39.25981 -110.74468 40970 ft 535 kts 75°
2026-05-08 00:42 39.27301 -110.65005 40965 ft 536 kts 75°
2026-05-08 00:43 39.28615 -110.55530 40961 ft 536 kts 75°
2026-05-08 00:43 39.29921 -110.46049 40973 ft 536 kts 75°
2026-05-08 00:44 39.31221 -110.36560 40962 ft 537 kts 76°
2026-05-08 00:44 39.32512 -110.27067 40958 ft 536 kts 76°
2026-05-08 00:45 39.33803 -110.17526 40965 ft 536 kts 76°
2026-05-08 00:45 39.35082 -110.08014 40974 ft 540 kts 76°
2026-05-08 00:46 39.36347 -109.98526 40986 ft 538 kts 76°
2026-05-08 00:46 39.37658 -109.88913 40983 ft 540 kts 76°
2026-05-08 00:47 39.38976 -109.79449 41002 ft 539 kts 76°
2026-05-08 00:47 39.40268 -109.69889 40989 ft 540 kts 76°
2026-05-08 00:48 39.41574 -109.60332 40981 ft 539 kts 76°
2026-05-08 00:48 39.42858 -109.50762 40971 ft 540 kts 76°
2026-05-08 00:49 39.44145 -109.41194 40969 ft 540 kts 76°
2026-05-08 00:49 39.45418 -109.31608 40961 ft 540 kts 76°
2026-05-08 00:50 39.46687 -109.22024 40950 ft 541 kts 76°
2026-05-08 00:50 39.47945 -109.12435 40950 ft 540 kts 76°
2026-05-08 00:51 39.49203 -109.02804 40947 ft 543 kts 76°
2026-05-08 00:51 39.50452 -108.93163 40961 ft 544 kts 76°
2026-05-08 00:52 39.51695 -108.83513 40967 ft 544 kts 76°
2026-05-08 00:52 39.52931 -108.73845 40967 ft 546 kts 76°
2026-05-08 00:53 39.54164 -108.64138 40977 ft 547 kts 76°
2026-05-08 00:53 39.55391 -108.54406 40997 ft 547 kts 76°
2026-05-08 00:54 39.56611 -108.44666 40987 ft 547 kts 76°
2026-05-08 00:54 39.57825 -108.34903 41000 ft 548 kts 77°
2026-05-08 00:55 39.59031 -108.25132 40998 ft 549 kts 77°
2026-05-08 00:55 39.60230 -108.15355 41023 ft 549 kts 77°
2026-05-08 00:56 39.61419 -108.05576 40992 ft 548 kts 77°
2026-05-08 00:56 39.62594 -107.95856 40990 ft 549 kts 77°
2026-05-08 00:57 39.63766 -107.86082 40993 ft 549 kts 77°
2026-05-08 00:57 39.64940 -107.76227 41065 ft 549 kts 77°
2026-05-08 00:58 39.66098 -107.66429 41057 ft 550 kts 77°
2026-05-08 00:58 39.67239 -107.56693 41053 ft 550 kts 77°
2026-05-08 00:59 39.68383 -107.46874 41046 ft 550 kts 77°
2026-05-08 00:59 39.69516 -107.37058 41044 ft 550 kts 77°
2026-05-08 01:00 39.70648 -107.27197 41062 ft 553 kts 77°
2026-05-08 01:00 39.71771 -107.17318 41086 ft 553 kts 77°
2026-05-08 01:01 39.72887 -107.07432 41111 ft 553 kts 78°
2026-05-08 01:01 39.73997 -106.97524 41126 ft 554 kts 78°
2026-05-08 01:02 39.75097 -106.87620 41125 ft 554 kts 78°
2026-05-08 01:02 39.76191 -106.77701 41048 ft 555 kts 78°
2026-05-08 01:03 39.77092 -106.69462 41076 ft 554 kts 78°
2026-05-08 01:03 39.78172 -106.59523 41067 ft 556 kts 79°
2026-05-08 01:04 39.79167 -106.49562 41061 ft 556 kts 81°
2026-05-08 01:04 39.80065 -106.39561 41074 ft 557 kts 80°
2026-05-08 01:05 39.80937 -106.29572 41082 ft 556 kts 81°
2026-05-08 01:05 39.81803 -106.19587 41079 ft 556 kts 80°
2026-05-08 01:06 39.82665 -106.09593 41083 ft 555 kts 81°
2026-05-08 01:06 39.83512 -105.99586 41100 ft 556 kts 81°
2026-05-08 01:07 39.84361 -105.89548 41084 ft 559 kts 81°
2026-05-08 01:07 39.85194 -105.79498 41084 ft 558 kts 81°
2026-05-08 01:08 39.86025 -105.69448 41062 ft 559 kts 81°
2026-05-08 01:08 39.86846 -105.59360 41024 ft 564 kts 81°
2026-05-08 01:09 39.87668 -105.49165 40986 ft 567 kts 81°
2026-05-08 01:09 39.88481 -105.38958 40986 ft 567 kts 81°
2026-05-08 01:10 39.89286 -105.28748 41175 ft 563 kts 81°
2026-05-08 01:10 39.89678 -105.23712 41635 ft 555 kts 82°
2026-05-08 01:10 39.90064 -105.18737 42091 ft 549 kts 82°
2026-05-08 01:10 39.90444 -105.13822 42559 ft 542 kts 82°
2026-05-08 01:11 39.90805 -105.09126 43016 ft 536 kts 82°
2026-05-08 01:11 39.91172 -105.04323 43494 ft 530 kts 82°
2026-05-08 01:11 39.91532 -104.99578 43915 ft 524 kts 83°
2026-05-08 01:11 39.91887 -104.94881 44421 ft 518 kts 83°
2026-05-08 01:12 39.92236 -104.90244 44870 ft 512 kts 83°
2026-05-08 01:12 39.92933 -104.80915 44965 ft 524 kts 83°
2026-05-08 01:13 39.93638 -104.71338 44999 ft 537 kts 83°
2026-05-08 01:13 39.94353 -104.61526 45003 ft 550 kts 83°
2026-05-08 01:14 39.95075 -104.51496 44979 ft 562 kts 83°
2026-05-08 01:14 39.95803 -104.41261 44965 ft 570 kts 83°
2026-05-08 01:15 39.96518 -104.31059 44939 ft 562 kts 84°
2026-05-08 01:15 39.97223 -104.20905 44912 ft 563 kts 84°
2026-05-08 01:16 39.97911 -104.10846 44898 ft 565 kts 84°
2026-05-08 01:16 39.98600 -104.00650 44900 ft 565 kts 84°
2026-05-08 01:17 39.99280 -103.90449 44901 ft 565 kts 84°
2026-05-08 01:17 39.99952 -103.80237 44898 ft 566 kts 84°
2026-05-08 01:18 40.00614 -103.70022 44904 ft 565 kts 84°
2026-05-08 01:18 40.01269 -103.59803 44900 ft 565 kts 84°
2026-05-08 01:19 40.01912 -103.49584 44902 ft 565 kts 84°
2026-05-08 01:19 40.02544 -103.39433 44900 ft 565 kts 84°
2026-05-08 01:20 40.03170 -103.29209 44894 ft 565 kts 85°
2026-05-08 01:20 40.03788 -103.18983 44893 ft 565 kts 85°
2026-05-08 01:21 40.04396 -103.08753 44895 ft 567 kts 85°
2026-05-08 01:21 40.04997 -102.98490 44900 ft 567 kts 85°
2026-05-08 01:22 40.05590 -102.88231 44898 ft 567 kts 85°
2026-05-08 01:22 40.06172 -102.77969 44898 ft 567 kts 85°
2026-05-08 01:23 40.06748 -102.67682 44886 ft 569 kts 85°
2026-05-08 01:23 40.07314 -102.57393 44879 ft 568 kts 85°
2026-05-08 01:24 40.07872 -102.47095 44882 ft 569 kts 85°
2026-05-08 01:24 40.08419 -102.36797 44888 ft 569 kts 85°
2026-05-08 01:25 40.08959 -102.26497 44883 ft 569 kts 85°
2026-05-08 01:25 40.09489 -102.16196 44886 ft 569 kts 85°
2026-05-08 01:26 40.10010 -102.05895 44892 ft 568 kts 86°
2026-05-08 01:26 40.10523 -101.95568 44889 ft 570 kts 86°
2026-05-08 01:27 40.11026 -101.85230 44891 ft 570 kts 86°
2026-05-08 01:27 40.11522 -101.74891 44888 ft 570 kts 86°
2026-05-08 01:28 40.12007 -101.64548 44887 ft 572 kts 86°
2026-05-08 01:28 40.12487 -101.54152 44884 ft 573 kts 86°
2026-05-08 01:29 40.12955 -101.43767 44887 ft 573 kts 86°
2026-05-08 01:29 40.13722 -101.33423 44879 ft 571 kts 79°
2026-05-08 01:30 40.15303 -101.23237 44873 ft 572 kts 77°
2026-05-08 01:30 40.16708 -101.12997 44875 ft 573 kts 79°
2026-05-08 01:31 40.18199 -101.02773 44872 ft 572 kts 77°
2026-05-08 01:31 40.19636 -100.92532 44870 ft 572 kts 78°
2026-05-08 01:32 40.21078 -100.82291 44873 ft 572 kts 78°
2026-05-08 01:32 40.22514 -100.72048 44883 ft 572 kts 78°
2026-05-08 01:33 40.23930 -100.61796 44877 ft 572 kts 78°
2026-05-08 01:33 40.25353 -100.51526 44881 ft 575 kts 78°
2026-05-08 01:34 40.26747 -100.41295 44877 ft 574 kts 78°
2026-05-08 01:34 40.28152 -100.31002 44869 ft 574 kts 78°
2026-05-08 01:35 40.29539 -100.20699 44876 ft 574 kts 78°
2026-05-08 01:35 40.30924 -100.10393 44871 ft 574 kts 78°
2026-05-08 01:36 40.32293 -100.00096 44870 ft 574 kts 78°
2026-05-08 01:36 40.33657 -99.89787 44864 ft 574 kts 78°
2026-05-08 01:37 40.35009 -99.79478 44864 ft 574 kts 79°
2026-05-08 01:37 40.36352 -99.69183 44860 ft 573 kts 79°
2026-05-08 01:38 40.37685 -99.58879 44863 ft 573 kts 79°
2026-05-08 01:38 40.39009 -99.48572 44864 ft 573 kts 79°
2026-05-08 01:39 40.40323 -99.38268 44859 ft 572 kts 79°
2026-05-08 01:39 40.41627 -99.27961 44861 ft 573 kts 79°
2026-05-08 01:40 40.42923 -99.17648 44867 ft 573 kts 79°
2026-05-08 01:40 40.44208 -99.07340 44873 ft 572 kts 79°
2026-05-08 01:41 40.45484 -98.97021 44870 ft 573 kts 79°
2026-05-08 01:41 40.46751 -98.86699 44869 ft 573 kts 79°
2026-05-08 01:42 40.48009 -98.76374 44863 ft 572 kts 79°
2026-05-08 01:42 40.49259 -98.66040 44860 ft 573 kts 79°
2026-05-08 01:43 40.50499 -98.55698 44859 ft 573 kts 79°
2026-05-08 01:43 40.51722 -98.45430 44858 ft 573 kts 79°
2026-05-08 01:44 40.52944 -98.35080 44882 ft 573 kts 80°
2026-05-08 01:44 40.54159 -98.24711 44879 ft 574 kts 80°
2026-05-08 01:45 40.55365 -98.14333 44875 ft 574 kts 80°
2026-05-08 01:45 40.56562 -98.03948 44866 ft 574 kts 80°
2026-05-08 01:46 40.57694 -97.93544 44836 ft 577 kts 84°
2026-05-08 01:46 40.58053 -97.82994 44859 ft 577 kts 88°
2026-05-08 01:47 40.58409 -97.72437 44864 ft 577 kts 86°
2026-05-08 01:47 40.58775 -97.61890 44860 ft 577 kts 87°
2026-05-08 01:48 40.59224 -97.47733 44857 ft 580 kts 86°
2026-05-08 01:48 40.59546 -97.37139 44861 ft 579 kts 87°
2026-05-08 01:49 40.59865 -97.26544 44858 ft 579 kts 87°
2026-05-08 01:49 40.60177 -97.15953 44855 ft 579 kts 87°
2026-05-08 01:50 40.60473 -97.05355 44856 ft 580 kts 87°
2026-05-08 01:50 40.60767 -96.94754 44857 ft 580 kts 87°
2026-05-08 01:51 40.61042 -96.84222 44872 ft 580 kts 87°
2026-05-08 01:51 40.61314 -96.73621 44864 ft 579 kts 87°
2026-05-08 01:52 40.61574 -96.63026 44863 ft 579 kts 87°
2026-05-08 01:52 40.61826 -96.52422 44859 ft 580 kts 88°
2026-05-08 01:53 40.62067 -96.41812 44858 ft 581 kts 88°
2026-05-08 01:53 40.62300 -96.31183 44861 ft 581 kts 88°
2026-05-08 01:54 40.62522 -96.20553 44874 ft 581 kts 88°
2026-05-08 01:54 40.62735 -96.09919 44886 ft 581 kts 88°
2026-05-08 01:55 40.62940 -95.99195 44884 ft 582 kts 88°
2026-05-08 01:55 40.63133 -95.88544 44886 ft 582 kts 88°
2026-05-08 01:56 40.63317 -95.77885 44888 ft 582 kts 88°
2026-05-08 01:56 40.63491 -95.67221 44878 ft 583 kts 88°
2026-05-08 01:57 40.63655 -95.56571 44862 ft 582 kts 88°
2026-05-08 01:57 40.63809 -95.45983 44864 ft 582 kts 88°
2026-05-08 01:58 40.63953 -95.35326 44863 ft 582 kts 89°
2026-05-08 01:58 40.64088 -95.24664 44862 ft 583 kts 89°
2026-05-08 01:59 40.64213 -95.13993 44888 ft 583 kts 89°
2026-05-08 01:59 40.64329 -95.03324 44891 ft 583 kts 89°
2026-05-08 02:00 40.64435 -94.92652 44891 ft 584 kts 89°
2026-05-08 02:00 40.64530 -94.81949 44887 ft 584 kts 89°
2026-05-08 02:01 40.64617 -94.71233 44888 ft 584 kts 89°
2026-05-08 02:01 40.64693 -94.60532 44876 ft 584 kts 89°
2026-05-08 02:02 40.64759 -94.49827 44881 ft 585 kts 89°
2026-05-08 02:02 40.64816 -94.39118 44883 ft 585 kts 89°
2026-05-08 02:03 40.64862 -94.28409 44880 ft 585 kts 89°
2026-05-08 02:03 40.64899 -94.17770 44898 ft 585 kts 89°
2026-05-08 02:04 40.64926 -94.07026 44880 ft 587 kts 89°
2026-05-08 02:04 40.64943 -93.96277 44882 ft 587 kts 90°
2026-05-08 02:05 40.64950 -93.85533 44880 ft 587 kts 90°
2026-05-08 02:05 40.64947 -93.74770 44881 ft 590 kts 90°
2026-05-08 02:06 40.64934 -93.63957 44878 ft 590 kts 90°
2026-05-08 02:06 40.64908 -93.53144 44881 ft 590 kts 90°
2026-05-08 02:07 40.64766 -93.42329 44882 ft 591 kts 91°
2026-05-08 02:07 40.64657 -93.31516 44884 ft 591 kts 90°
2026-05-08 02:08 40.64519 -93.20704 44890 ft 590 kts 91°
2026-05-08 02:08 40.64375 -93.09895 44898 ft 590 kts 90°
2026-05-08 02:09 40.64225 -92.99071 44908 ft 593 kts 91°
2026-05-08 02:09 40.64057 -92.88216 44910 ft 592 kts 91°
2026-05-08 02:10 40.63887 -92.77369 44892 ft 593 kts 91°
2026-05-08 02:10 40.63700 -92.66524 44904 ft 593 kts 91°
2026-05-08 02:11 40.63507 -92.55656 44890 ft 593 kts 91°
2026-05-08 02:11 40.63301 -92.44796 44890 ft 594 kts 91°
2026-05-08 02:12 40.63087 -92.33932 44894 ft 594 kts 91°
2026-05-08 02:12 40.62861 -92.23056 44900 ft 595 kts 91°
2026-05-08 02:13 40.62626 -92.12171 44906 ft 595 kts 91°
2026-05-08 02:13 40.62379 -92.01291 44909 ft 595 kts 91°
2026-05-08 02:14 40.62123 -91.90405 44916 ft 595 kts 91°
2026-05-08 02:14 40.61856 -91.79520 44910 ft 595 kts 91°
2026-05-08 02:15 40.61579 -91.68629 44912 ft 596 kts 91°
2026-05-08 02:15 40.61292 -91.57738 44919 ft 595 kts 91°
2026-05-08 02:16 40.60994 -91.46842 44927 ft 597 kts 92°
2026-05-08 02:16 40.60686 -91.35932 44928 ft 596 kts 92°
2026-05-08 02:17 40.60367 -91.25028 44929 ft 596 kts 92°
2026-05-08 02:17 40.60038 -91.14122 44937 ft 596 kts 92°
2026-05-08 02:18 40.59698 -91.03190 44927 ft 598 kts 92°
2026-05-08 02:18 40.59348 -90.92263 44948 ft 598 kts 92°
2026-05-08 02:19 40.58988 -90.81335 44959 ft 598 kts 92°
2026-05-08 02:19 40.58617 -90.70410 44968 ft 599 kts 92°
2026-05-08 02:20 40.58238 -90.59541 44962 ft 598 kts 92°
2026-05-08 02:20 40.57846 -90.48605 44961 ft 598 kts 92°
2026-05-08 02:21 40.57444 -90.37668 44968 ft 598 kts 92°
2026-05-08 02:21 40.57031 -90.26708 44949 ft 600 kts 92°
2026-05-08 02:22 40.56607 -90.15750 44948 ft 600 kts 92°
2026-05-08 02:22 40.56173 -90.04797 44953 ft 600 kts 92°
2026-05-08 02:23 40.55729 -89.93841 44961 ft 600 kts 92°
2026-05-08 02:23 40.55274 -89.82881 44963 ft 600 kts 93°
2026-05-08 02:24 40.54808 -89.71921 44964 ft 601 kts 93°
2026-05-08 02:24 40.54333 -89.60965 44964 ft 600 kts 93°
2026-05-08 02:25 40.53846 -89.50006 44965 ft 600 kts 93°
2026-05-08 02:25 40.53350 -89.39048 44966 ft 601 kts 93°
2026-05-08 02:26 40.52843 -89.28091 44966 ft 600 kts 93°
2026-05-08 02:26 40.52329 -89.17206 44969 ft 602 kts 93°
2026-05-08 02:27 40.51800 -89.06237 44985 ft 601 kts 93°
2026-05-08 02:27 40.51100 -88.95283 44978 ft 601 kts 95°
2026-05-08 02:28 40.50354 -88.84269 44997 ft 601 kts 95°
2026-05-08 02:28 40.49576 -88.73390 44983 ft 602 kts 95°
2026-05-08 02:29 40.48801 -88.62431 44974 ft 602 kts 95°
2026-05-08 02:29 40.48005 -88.51479 44963 ft 602 kts 95°
2026-05-08 02:30 40.47203 -88.40522 44968 ft 604 kts 95°
2026-05-08 02:30 40.46389 -88.29554 44980 ft 603 kts 95°
2026-05-08 02:31 40.45564 -88.18593 44984 ft 603 kts 95°
2026-05-08 02:31 40.44730 -88.07635 44976 ft 603 kts 95°
2026-05-08 02:32 40.43882 -87.96658 44978 ft 604 kts 95°
2026-05-08 02:32 40.43027 -87.85693 44988 ft 604 kts 96°
2026-05-08 02:33 40.42306 -87.76583 44996 ft 604 kts 96°
2026-05-08 02:33 40.41431 -87.65614 44998 ft 604 kts 96°
2026-05-08 02:34 40.40543 -87.54645 45005 ft 605 kts 96°
2026-05-08 02:34 40.39646 -87.43673 44992 ft 605 kts 96°
2026-05-08 02:35 40.38738 -87.32708 44991 ft 604 kts 96°
2026-05-08 02:35 40.37820 -87.21737 44983 ft 605 kts 96°
2026-05-08 02:36 40.36890 -87.10769 44990 ft 605 kts 96°
2026-05-08 02:36 40.35957 -86.99874 44992 ft 605 kts 96°
2026-05-08 02:37 40.35006 -86.88899 44995 ft 607 kts 96°
2026-05-08 02:37 40.34044 -86.77920 44995 ft 606 kts 97°
2026-05-08 02:38 40.33072 -86.66940 44993 ft 606 kts 97°
2026-05-08 02:38 40.32089 -86.55967 45005 ft 606 kts 97°
2026-05-08 02:39 40.31094 -86.44974 44990 ft 607 kts 97°
2026-05-08 02:39 40.30089 -86.33993 44994 ft 607 kts 97°
2026-05-08 02:40 40.29074 -86.23013 45010 ft 607 kts 97°
2026-05-08 02:40 40.28047 -86.12032 44999 ft 608 kts 97°
2026-05-08 02:41 40.27010 -86.01049 44995 ft 608 kts 97°
2026-05-08 02:41 40.25963 -85.90072 45003 ft 608 kts 97°
2026-05-08 02:42 40.24906 -85.79099 45005 ft 608 kts 97°
2026-05-08 02:42 40.23838 -85.68127 45005 ft 608 kts 98°
2026-05-08 02:43 40.22760 -85.57163 45008 ft 608 kts 98°
2026-05-08 02:43 40.21670 -85.46196 45002 ft 607 kts 98°
2026-05-08 02:44 40.20572 -85.35235 45005 ft 608 kts 98°
2026-05-08 02:44 40.19462 -85.24279 45009 ft 608 kts 98°
2026-05-08 02:45 40.18342 -85.13320 45011 ft 608 kts 98°
2026-05-08 02:45 40.17212 -85.02369 45012 ft 608 kts 98°
2026-05-08 02:46 40.16070 -84.91406 45005 ft 609 kts 98°
2026-05-08 02:46 40.14917 -84.80444 45019 ft 609 kts 98°
2026-05-08 02:47 40.13754 -84.69489 45017 ft 609 kts 98°
2026-05-08 02:47 40.12580 -84.58526 44998 ft 609 kts 98°
2026-05-08 02:48 40.11404 -84.47649 45017 ft 609 kts 98°
2026-05-08 02:48 40.10211 -84.36709 45014 ft 609 kts 98°
2026-05-08 02:49 40.09007 -84.25768 45008 ft 608 kts 98°
2026-05-08 02:49 40.07794 -84.14837 45012 ft 608 kts 99°
2026-05-08 02:50 40.06570 -84.03918 45014 ft 608 kts 99°
2026-05-08 02:50 40.05337 -83.92995 45014 ft 608 kts 99°
2026-05-08 02:51 40.04094 -83.82096 45020 ft 607 kts 99°
2026-05-08 02:51 40.02843 -83.71204 45021 ft 607 kts 99°
2026-05-08 02:52 40.01580 -83.60311 45032 ft 607 kts 99°
2026-05-08 02:52 40.00375 -83.49406 45031 ft 609 kts 98°
2026-05-08 02:53 39.99246 -83.38452 45025 ft 609 kts 99°
2026-05-08 02:53 39.98025 -83.27528 45027 ft 609 kts 98°
2026-05-08 02:54 39.96862 -83.16591 45028 ft 609 kts 99°
2026-05-08 02:54 39.95630 -83.05630 45046 ft 612 kts 99°
2026-05-08 02:55 39.93810 -82.89164 45018 ft 612 kts 99°
2026-05-08 02:56 39.92567 -82.78195 45016 ft 612 kts 99°
2026-05-08 02:56 39.91327 -82.67219 45031 ft 612 kts 99°
2026-05-08 02:57 39.90066 -82.56261 45033 ft 612 kts 99°
2026-05-08 02:57 39.88802 -82.45297 45020 ft 612 kts 99°
2026-05-08 02:58 39.87523 -82.34350 45015 ft 609 kts 99°
2026-05-08 02:58 39.86253 -82.23528 45018 ft 610 kts 99°
2026-05-08 02:59 39.84959 -82.12622 45022 ft 610 kts 99°
2026-05-08 02:59 39.83658 -82.01724 45025 ft 610 kts 100°
2026-05-08 03:00 39.82345 -81.90830 45027 ft 610 kts 100°
2026-05-08 03:00 39.81022 -81.79940 45028 ft 609 kts 100°
2026-05-08 03:01 39.79689 -81.69056 45040 ft 610 kts 100°
2026-05-08 03:01 39.78348 -81.58184 45026 ft 608 kts 100°
2026-05-08 03:02 39.76997 -81.47331 45015 ft 608 kts 100°
2026-05-08 03:02 39.75636 -81.36477 45018 ft 608 kts 100°
2026-05-08 03:03 39.74265 -81.25631 45015 ft 608 kts 101°
2026-05-08 03:03 39.72888 -81.14813 45013 ft 607 kts 101°
2026-05-08 03:04 39.71500 -81.04002 45011 ft 607 kts 101°
2026-05-08 03:04 39.70103 -80.93194 45010 ft 607 kts 101°
2026-05-08 03:05 39.68697 -80.82404 45013 ft 605 kts 101°
2026-05-08 03:05 39.67284 -80.71639 44884 ft 603 kts 101°
2026-05-08 03:05 39.66574 -80.66260 43983 ft 604 kts 101°
2026-05-08 03:06 39.65862 -80.60890 43179 ft 603 kts 101°
2026-05-08 03:06 39.65148 -80.55518 42388 ft 606 kts 101°
2026-05-08 03:06 39.64426 -80.50112 41593 ft 610 kts 102°
2026-05-08 03:06 39.63698 -80.44677 40791 ft 613 kts 102°
2026-05-08 03:07 39.62963 -80.39211 39986 ft 619 kts 102°
2026-05-08 03:07 39.62216 -80.33678 39176 ft 625 kts 102°
2026-05-08 03:07 39.61462 -80.28111 38293 ft 629 kts 102°
2026-05-08 03:07 39.60702 -80.22518 37470 ft 631 kts 102°
2026-05-08 03:08 39.59937 -80.16909 36646 ft 633 kts 102°
2026-05-08 03:08 39.59166 -80.11285 35819 ft 635 kts 102°
2026-05-08 03:08 39.58389 -80.05640 34989 ft 638 kts 102°
2026-05-08 03:08 39.57607 -79.99968 34154 ft 640 kts 102°
2026-05-08 03:09 39.56819 -79.94280 33252 ft 640 kts 102°
2026-05-08 03:09 39.56040 -79.88665 32418 ft 628 kts 102°
2026-05-08 03:09 39.55154 -79.83179 31592 ft 617 kts 106°
2026-05-08 03:09 39.54173 -79.77807 30767 ft 607 kts 105°
2026-05-08 03:10 39.53248 -79.72529 29977 ft 596 kts 105°
2026-05-08 03:10 39.52330 -79.67330 29140 ft 588 kts 105°
2026-05-08 03:10 39.51389 -79.62203 28373 ft 581 kts 106°
2026-05-08 03:10 39.50455 -79.57135 27608 ft 575 kts 106°
2026-05-08 03:11 39.49549 -79.52120 26843 ft 569 kts 105°
2026-05-08 03:11 39.48664 -79.47156 26290 ft 564 kts 105°
2026-05-08 03:11 39.47784 -79.42233 25676 ft 559 kts 105°
2026-05-08 03:11 39.46903 -79.37376 25110 ft 551 kts 106°
2026-05-08 03:12 39.46026 -79.32652 24539 ft 539 kts 107°
2026-05-08 03:12 39.45176 -79.28063 23987 ft 511 kts 107°
2026-05-08 03:12 39.44375 -79.23697 23432 ft 490 kts 107°
2026-05-08 03:12 39.43592 -79.19466 22883 ft 478 kts 107°
2026-05-08 03:13 39.42825 -79.15313 22397 ft 473 kts 106°
2026-05-08 03:13 39.42112 -79.11184 21897 ft 468 kts 105°
2026-05-08 03:13 39.41426 -79.07100 21408 ft 463 kts 105°
2026-05-08 03:13 39.40714 -79.03059 20923 ft 459 kts 107°
2026-05-08 03:14 39.39991 -78.99067 20452 ft 454 kts 107°
2026-05-08 03:14 39.39293 -78.95116 19967 ft 447 kts 106°
2026-05-08 03:14 39.38612 -78.91206 19501 ft 444 kts 106°
2026-05-08 03:14 39.37924 -78.87340 19036 ft 439 kts 107°
2026-05-08 03:15 39.37228 -78.83522 18548 ft 434 kts 107°
2026-05-08 03:15 39.36545 -78.79743 18100 ft 430 kts 106°
2026-05-08 03:15 39.35877 -78.76003 17648 ft 423 kts 106°
2026-05-08 03:15 39.35217 -78.72326 17202 ft 418 kts 106°
2026-05-08 03:16 39.34556 -78.68693 16763 ft 412 kts 105°
2026-05-08 03:16 39.33904 -78.65101 16327 ft 409 kts 105°
2026-05-08 03:16 39.33261 -78.61546 15895 ft 403 kts 105°
2026-05-08 03:16 39.32626 -78.58052 15470 ft 397 kts 105°
2026-05-08 03:17 39.31998 -78.54600 15050 ft 392 kts 104°
2026-05-08 03:17 39.31387 -78.51198 14641 ft 386 kts 104°
2026-05-08 03:17 39.30789 -78.47842 14233 ft 380 kts 103°
2026-05-08 03:17 39.30193 -78.44540 13834 ft 375 kts 103°
2026-05-08 03:18 39.29601 -78.41278 13410 ft 371 kts 103°
2026-05-08 03:18 39.28995 -78.38050 13001 ft 369 kts 105°
2026-05-08 03:18 39.27875 -78.35111 12575 ft 364 kts 125°
2026-05-08 03:18 39.26434 -78.32416 12226 ft 364 kts 126°
2026-05-08 03:19 39.25009 -78.29732 11856 ft 361 kts 125°
2026-05-08 03:19 39.24104 -78.27988 11610 ft 346 kts 124°
2026-05-08 03:19 39.22804 -78.25481 11251 ft 330 kts 125°
2026-05-08 03:19 39.21526 -78.23055 10942 ft 324 kts 125°
2026-05-08 03:20 39.20262 -78.20666 10748 ft 322 kts 125°
2026-05-08 03:20 39.18613 -78.17532 10428 ft 317 kts 125°
2026-05-08 03:20 39.17375 -78.15180 10160 ft 317 kts 124°
2026-05-08 03:20 39.16541 -78.13598 10011 ft 314 kts 124°
2026-05-08 03:21 39.15315 -78.11274 10021 ft 314 kts 124°
2026-05-08 03:21 39.14086 -78.08943 10015 ft 314 kts 124°
2026-05-08 03:21 39.12855 -78.06611 9815 ft 315 kts 124°
2026-05-08 03:21 39.11626 -78.04285 9497 ft 313 kts 124°
2026-05-08 03:22 39.10406 -78.01977 9173 ft 311 kts 124°
2026-05-08 03:22 39.09195 -77.99688 8852 ft 308 kts 124°
2026-05-08 03:22 39.07991 -77.97417 8531 ft 306 kts 124°
2026-05-08 03:22 39.06793 -77.95163 8220 ft 304 kts 124°
2026-05-08 03:23 39.05609 -77.92933 7892 ft 300 kts 124°
2026-05-08 03:23 39.04436 -77.90727 7591 ft 298 kts 124°
2026-05-08 03:23 39.03268 -77.88534 7281 ft 296 kts 124°
2026-05-08 03:23 39.02112 -77.86360 7006 ft 292 kts 124°
2026-05-08 03:24 39.00971 -77.84215 6917 ft 292 kts 124°
2026-05-08 03:24 38.99828 -77.82062 6716 ft 291 kts 124°
2026-05-08 03:24 38.98703 -77.79947 6490 ft 289 kts 124°
2026-05-08 03:24 38.97571 -77.77820 6221 ft 287 kts 124°
2026-05-08 03:25 38.96594 -77.75604 5942 ft 285 kts 108°
2026-05-08 03:25 38.96278 -77.73106 6022 ft 285 kts 95°
2026-05-08 03:25 38.96024 -77.70585 6029 ft 285 kts 96°
2026-05-08 03:25 38.95748 -77.68064 6033 ft 285 kts 96°
2026-05-08 03:26 38.95492 -77.65534 6023 ft 286 kts 94°
2026-05-08 03:26 38.95788 -77.63069 5961 ft 278 kts 64°
2026-05-08 03:26 38.96881 -77.61067 5991 ft 272 kts 39°
2026-05-08 03:26 38.98436 -77.59719 6039 ft 270 kts 28°
2026-05-08 03:27 39.00047 -77.58475 5954 ft 271 kts 27°
2026-05-08 03:27 39.01748 -77.57539 5639 ft 264 kts
2026-05-08 03:27 39.03543 -77.57445 5373 ft 256 kts 356°
2026-05-08 03:27 39.05321 -77.57464 5117 ft 254 kts 356°
2026-05-08 03:28 39.07038 -77.57461 4793 ft 240 kts 356°
2026-05-08 03:28 39.08662 -77.57455 4444 ft 228 kts 356°
2026-05-08 03:28 39.10214 -77.57456 4100 ft 219 kts 355°
2026-05-08 03:28 39.11705 -77.57242 3668 ft 220 kts 15°
2026-05-08 03:29 39.12825 -77.55871 3264 ft 233 kts 57°
2026-05-08 03:29 39.13115 -77.53801 3006 ft 238 kts 83°
2026-05-08 03:29 39.13130 -77.51668 2856 ft 238 kts 85°
2026-05-08 03:29 39.13148 -77.49538 2700 ft 238 kts 84°
2026-05-08 03:30 39.12478 -77.45473 2105 ft 239 kts 131°
2026-05-08 03:30 39.09840 -77.43566 2018 ft 209 kts 158°
2026-05-08 03:31 39.07057 -77.43434 2031 ft 201 kts 187°
2026-05-08 03:31 39.04279 -77.43472 2009 ft 191 kts 187°
2026-05-08 03:32 39.02943 -77.43491 1781 ft 192 kts 187°
2026-05-08 03:32 39.01716 -77.43498 1517 ft 161 kts 187°
2026-05-08 03:32 39.00681 -77.43515 1310 ft 139 kts 188°
2026-05-08 03:32 38.99732 -77.43532 1137 ft 131 kts 186°
2026-05-08 03:33 38.98851 -77.43543 977 ft 123 kts 184°
2026-05-08 03:33 38.98009 -77.43560 825 ft 119 kts 183°
2026-05-08 03:33 38.97192 -77.43572 678 ft 118 kts 182°
2026-05-08 03:33 38.96365 -77.43582 522 ft 118 kts 182°
2026-05-08 03:34 38.95544 -77.43599 352 ft 115 kts 182°
2026-05-08 03:34 38.94792 -77.43611 298 ft 97 kts 181°
2026-05-08 03:34 38.94338 -77.43619 298 ft 34 kts 180°
2026-05-08 03:34 38.94178 -77.43621 299 ft 19 kts 181°
2026-05-08 03:35 38.94052 -77.43630 298 ft 18 kts 189°
2026-05-08 03:35 38.93977 -77.43676 297 ft 3 kts 260°
2026-05-08 03:35 38.94015 -77.43715 297 ft 10 kts 327°
2026-05-08 03:35 38.94085 -77.43773 297 ft 12 kts 327°
2026-05-08 03:36 38.94159 -77.43830 297 ft 12 kts 336°
2026-05-08 03:36 38.94243 -77.43859 297 ft 12 kts 351°
2026-05-08 03:36 38.94330 -77.43863 297 ft 13 kts
2026-05-08 03:36 38.94419 -77.43861 297 ft 13 kts
2026-05-08 03:37 38.94509 -77.43860 297 ft 14 kts
2026-05-08 03:37 38.94604 -77.43860 298 ft 14 kts
2026-05-08 03:37 38.94700 -77.43858 297 ft 14 kts
2026-05-08 03:37 38.94797 -77.43857 299 ft 14 kts
2026-05-08 03:38 38.94893 -77.43856 297 ft 14 kts
2026-05-08 03:38 38.94988 -77.43855 297 ft 14 kts
2026-05-08 03:38 38.95081 -77.43853 297 ft 14 kts
2026-05-08 03:38 38.95175 -77.43851 299 ft 13 kts
2026-05-08 03:39 38.95268 -77.43850 297 ft 13 kts
2026-05-08 03:39 38.95354 -77.43849 297 ft 11 kts
2026-05-08 03:39 38.95427 -77.43848 298 ft 10 kts
2026-05-08 03:39 38.95482 -77.43885 297 ft 9 kts 298°
2026-05-08 03:40 38.95485 -77.43962 297 ft 9 kts 271°
2026-05-08 03:40 38.95486 -77.44028 297 ft 7 kts 270°
2026-05-08 03:40 38.95471 -77.44073 298 ft 6 kts 198°
2026-05-08 03:40 38.95424 -77.44075 297 ft 7 kts 180°
2026-05-08 03:41 38.95388 -77.44091 297 ft 4 kts 245°
2026-05-08 03:41 38.95388 -77.44121 297 ft 2 kts 279°
2026-05-08 03:41 38.95401 -77.44125 300 ft 3 kts
2026-05-08 03:41 38.95402 -77.44125 300 ft 0 kts